Location: Sawmill Trailhead
(33.5800°N, 116.4497°W)
Time: 00:29:08
(UTC-07:00)

Uosat F - Visible Passes

Search period start: 23 August 2014 00:00
Search period end: 02 September 2014 00:00
Orbit: 751 x 763 km, 98.7° (Epoch: 22 August)

Date Brightness Start Highest point End Pass type
(mag) Time Alt. Az. Time Alt. Az. Time Alt. Az.
23 Aug 13.7 03:59:06 10° ENE 04:02:06 16° E 04:05:04 10° SE visible
23 Aug 11.4 05:36:17 10° N 05:41:03 46° WNW 05:45:48 10° SW visible
24 Aug 11.4 04:57:03 10° NNE 05:02:02 68° ESE 05:07:00 10° S visible
25 Aug 13.0 04:18:40 10° NE 04:22:49 26° E 04:26:57 10° SSE visible
26 Aug 11.0 05:17:37 10° N 05:22:36 74° WNW 05:27:34 10° SSW visible
27 Aug 12.2 04:38:45 10° NNE 04:43:29 42° E 04:48:12 10° S visible
28 Aug 13.7 04:01:03 10° NE 04:04:10 16° E 04:07:16 10° SE visible
28 Aug 11.4 05:38:22 10° N 05:43:06 44° WNW 05:47:50 10° SW visible
29 Aug 11.3 04:59:06 10° NNE 05:04:06 71° ESE 05:09:04 10° S visible
30 Aug 13.0 04:20:40 10° NE 04:24:53 27° E 04:29:04 10° SSE visible
31 Aug 11.0 05:19:40 10° N 05:24:39 71° WNW 05:29:37 10° SSW visible
01 Sep 12.1 04:40:46 10° NNE 04:45:33 44° E 04:50:18 10° S visible
